EW7119 Weather Reports


time (UTC)temp
F
wind
direction
speed
knots
gust
knots
rain 1hr
in
rain 24hr
in
rain mn
in
humidity
%
barometer
mb
20260906220005 75 140 0.9 7.0 0.00 0.00 0.00 30 1000.3
20260906214514 76 148 0.0 7.0 0.00 0.00 0.00 28 1000.7
20260906213034 77 163 0.0 6.1 0.00 0.00 0.00 27 1000.8
20260906211541 76 150 0.0 4.3 0.00 0.00 0.00 27 1001.1
20260906210047 75 217 0.0 7.8 0.00 0.00 0.00 27 1001.2
20260906204610 75 140 0.9 9.6 0.00 0.00 0.00 29 1001.3
20260906203045 74 145 0.0 7.8 0.00 0.00 0.00 34 1001.2
20260906201615 75 128 2.6 12.2 0.00 0.00 0.00 35 1001.5
20260906200031 76 159 0.0 10.4 0.00 0.00 0.00 31 1001.6
20260906194547 76 168 0.0 0.9 0.00 0.00 0.00 30 1001.8
20260906193047 75 150 0.0 0.9 0.00 0.00 0.00 32 1001.8
20260906183056 74 160 0.0 1.7 0.00 0.00 0.00 30 1002.5
20260906181559 74 186 0.0 7.8 0.00 0.00 0.00 33 1002.7
20260906180047 73 121 0.0 5.2 0.00 0.00 0.00 36 1003.0
20260906174608 72 146 0.0 0.0 0.00 0.00 0.00 36 1003.4
20260906173108 72 158 0.0 0.0 0.00 0.00 0.00 36 1003.5
20260906171600 72 254 0.0 0.0 0.00 0.00 0.00 35 1003.8
20260906170103 70 279 0.0 0.0 0.00 0.00 0.00 36 1003.9
20260906164601 69 272 0.0 0.0 0.00 0.00 0.00 36 1003.9
20260906163002 70 147 0.0 0.0 0.00 0.00 0.00 34 1003.6
20260906161513 70 186 0.0 0.0 0.00 0.00 0.00 36 1003.6
20260906160010 70 260 0.0 0.0 0.00 0.00 0.00 38 1003.5
20260906154532 69 192 0.0 0.0 0.00 0.00 0.00 37 1003.4
20260906153127 68 273 0.0 0.0 0.00 0.00 0.00 39 1003.3
20260906151606 68 269 0.0 0.0 0.00 0.00 0.00 42 1003.3
20260906150113 66 139 0.0 0.0 0.00 0.00 0.00 46 1003.3
20260906144620 64 139 0.0 0.0 0.00 0.00 0.00 50 1003.3
20260906143003 62 139 0.0 0.0 0.00 0.00 0.00 59 1003.3
20260906141506 58 139 0.0 0.0 0.00 0.00 0.00 64 1003.3
20260906140016 56 139 0.0 0.0 0.00 0.00 0.00 68 1003.2
20260906134646 55 106 0.0 0.0 0.00 0.00 0.00 69 1003.2
20260906133107 54 106 0.0 0.0 0.00 0.00 0.00 68 1003.1
20260906131611 53 96 0.0 0.0 0.00 0.00 0.00 70 1003.0
20260906130013 52 96 0.0 0.0 0.00 0.00 0.00 70 1002.7
20260906124516 52 96 0.0 0.0 0.00 0.00 0.00 70 1002.7
20260906123042 53 96 0.0 0.0 0.00 0.00 0.00 68 1002.7
20260906121521 54 96 0.0 0.0 0.00 0.00 0.00 67 1002.6
20260906120044 54 96 0.0 0.0 0.00 0.00 0.00 68 1002.4
20260906114549 54 96 0.0 0.0 0.00 0.00 0.00 67 1002.4
20260906113051 55 96 0.0 0.0 0.00 0.00 0.00 66 1002.4
20260906111504 55 96 0.0 0.0 0.00 0.00 0.00 65 1002.4
20260906110013 55 96 0.0 0.0 0.00 0.00 0.00 64 1002.3
20260906104530 56 96 0.0 0.0 0.00 0.00 0.00 64 1002.4
20260906103053 56 96 0.0 0.0 0.00 0.00 0.00 63 1002.4
20260906101602 55 96 0.0 0.0 0.00 0.00 0.00 64 1002.5
20260906100108 56 96 0.0 0.0 0.00 0.00 0.00 62 1002.5
20260906094501 57 96 0.0 0.0 0.00 0.00 0.00 59 1002.6
20260906093022 56 96 0.0 0.0 0.00 0.00 0.00 59 1002.5
20260906091507 56 96 0.0 0.0 0.00 0.00 0.00 60 1002.5
20260906090116 56 96 0.0 0.0 0.00 0.00 0.00 61 1002.4
20260906084504 57 92 0.0 0.0 0.00 0.00 0.00 59 1002.2
20260906083004 58 86 0.0 0.0 0.00 0.00 0.00 58 1002.3
20260906081521 58 51 0.0 0.0 0.00 0.00 0.00 56 1002.4
20260906080020 58 94 0.0 0.0 0.00 0.00 0.00 57 1002.4
20260906074533 59 42 0.0 0.9 0.00 0.00 0.00 56 1002.4
20260906073103 58 27 0.0 0.0 0.00 0.00 0.00 58 1002.5
20260906071609 59 34 0.0 0.0 0.00 0.00 0.00 56 1002.5
20260906070120 59 33 0.0 0.0 0.00 0.00 0.00 56 1002.6
20260906064605 59 32 0.0 0.0 0.00 0.00 0.00 58 1002.6
20260906063001 60 282 0.0 0.0 0.00 0.00 0.00 55 1002.4
20260906061508 61 282 0.0 0.0 0.00 0.00 0.00 55 1002.4
20260906060021 63 193 0.0 0.9 0.00 0.00 0.00 51 1002.5
20260906054544 63 150 0.0 0.0 0.00 0.00 0.00 50 1002.5
20260906053056 63 145 0.0 2.6 0.00 0.00 0.00 50 1002.5
20260906051600 63 122 0.0 7.8 0.00 0.00 0.00 51 1002.7
20260906050111 63 166 0.0 6.1 0.00 0.00 0.00 51 1002.7
20260906044558 63 145 0.0 4.3 0.00 0.00 0.00 50 1002.8
20260906043112 63 147 0.0 5.2 0.00 0.00 0.00 50 1002.8
20260906041502 60 178 0.0 0.0 0.00 0.00 0.00 53 1003.0
20260906040010 60 176 0.0 0.0 0.00 0.00 0.00 54 1002.8
20260906034520 60 184 0.0 0.0 0.00 0.00 0.00 53 1002.9
20260906033039 62 186 0.0 0.0 0.00 0.00 0.00 50 1002.8
20260906031532 63 186 0.0 0.0 0.00 0.00 0.00 47 1002.8
20260906030113 64 186 0.0 0.0 0.00 0.00 0.00 45 1002.5
20260906024610 64 242 0.0 0.0 0.00 0.00 0.00 44 1002.2
20260906023132 65 126 0.0 0.9 0.00 0.00 0.00 43 1002.0
20260906021615 65 148 0.0 0.0 0.00 0.00 0.00 43 1001.9
20260906020104 65 137 0.0 5.2 0.00 0.00 0.00 43 1001.7
20260906014626 66 131 0.0 9.6 0.00 0.00 0.00 43 1001.6
20260906013108 66 145 0.0 7.0 0.00 0.00 0.00 44 1001.6
20260906011604 67 147 0.0 9.6 0.00 0.00 0.00 43 1001.6
20260906010106 68 154 0.0 8.7 0.00 0.00 0.00 42 1001.5
20260906004614 69 146 0.9 12.2 0.00 0.00 0.00 39 1001.5
20260906003055 70 122 0.0 9.6 0.00 0.00 0.00 37 1001.6
20260906001559 69 136 0.0 0.9 0.00 0.00 0.00 40 1001.5
20260906000114 69 126 0.0 7.0 0.00 0.00 0.00 39 1001.7
20260905234511 70 148 0.0 9.6 0.00 0.00 0.00 39 1001.5
20260905233041 70 140 0.0 8.7 0.00 0.00 0.00 38 1001.4
20260905231530 70 141 0.0 8.7 0.00 0.00 0.00 40 1001.2
20260905230049 70 121 0.9 11.3 0.00 0.00 0.00 39 1001.3
20260905224607 71 160 0.0 0.9 0.00 0.00 0.00 39 1001.4
20260905223054 71 134 0.9 7.8 0.00 0.00 0.00 39 1001.4
20260905221559 72 97 0.0 2.6 0.00 0.00 0.00 38 1001.5